Date,TemperatureHighF,TemperatureAvgF,TemperatureLowF,DewpointHighF,DewpointAvgF,DewpointLowF,HumidityHigh,HumidityAvg,HumidityLow,PressureMaxIn,PressureMinIn,WindSpeedMaxMPH,WindSpeedAvgMPH,GustSpeedMaxMPH,PrecipitationSumIn
2013-1-1,39.1,29.3,14.8,28.8,19.0,5.5,78,65,50,0.00,40.00,0,-999,0,0.00
2013-1-2,35.6,18.0,7.6,17.8,-4.1,-49.2,73,49,5,0.00,40.00,0,-999,0,0.00
2013-1-3,28.8,12.6,1.1,11.8,3.7,0.0,74,35,37,0.00,40.00,0,-999,0,0.00
2013-1-4,42.1,26.8,13.3,28.9,18.6,8.6,85,71,58,0.00,40.00,0,-999,0,0.00
2013-1-5,43.4,30.7,18.9,27.1,20.4,12.9,79,66,47,0.00,40.00,0,-999,0,0.00
2013-1-6,45.4,31.4,22.1,31.6,24.2,16.3,86,75,56,0.00,40.00,0,-999,0,0.00
2013-1-7,42.7,29.2,18.7,32.5,21.3,12.4,89,73,48,0.00,40.00,0,-999,0,0.00
2013-1-8,49.7,33.1,19.3,34.2,25.3,13.3,85,73,55,0.00,40.00,0,-999,0,0.00
2013-1-9,45.0,34.2,22.1,34.0,28.0,19.0,88,79,60,0.00,40.00,0,-999,0,0.00
2013-1-10,44.8,36.3,26.1,32.7,24.8,20.1,80,64,46,0.00,40.00,0,-999,0,0.00
2013-1-11,39.6,32.2,23.0,35.1,26.5,18.1,92,80,65,0.00,40.00,0,-999,0,0.00
2013-1-12,48.4,39.7,35.5,45.0,37.4,33.6,94,91,85,0.00,40.00,0,-999,0,0.00
2013-1-13,50.0,43.5,37.1,46.9,41.6,35.2,95,93,89,0.00,40.00,0,-999,0,0.00
2013-1-14,54.0,44.4,-1.0,50.7,39.6,0.0,96,83,59,0.00,40.00,0,-999,0,0.00
2013-1-15,38.3,18.7,-1.0,28.0,14.8,0.0,83,45,63,0.00,40.00,0,-999,0,0.00
2013-1-16,34.7,19.5,-1.0,30.4,17.5,0.0,90,54,73,0.00,40.00,0,-999,0,0.00
2013-1-17,43.4,31.9,25.6,33.6,25.1,14.5,91,76,61,0.00,40.00,0,-999,0,0.00
2013-1-18,26.1,19.0,11.2,15.6,4.2,-1.5,66,53,36,0.00,40.00,0,-999,0,0.00
2013-1-19,44.5,33.2,19.6,29.7,22.7,9.1,76,65,54,0.00,40.00,0,-999,0,0.00
2013-1-20,50.0,36.0,23.2,32.9,24.5,8.6,80,63,42,0.00,40.00,0,-999,0,0.00
2013-1-21,28.4,21.1,-1.0,16.5,10.8,0.0,82,63,46,0.00,40.00,0,-999,0,0.00
2013-1-22,25.2,13.2,-1.0,15.1,1.8,-45.9,84,47,6,0.00,40.00,0,-999,0,0.00
2013-1-23,20.5,5.3,-1.0,0.0,-2.7,-56.4,57,10,3,0.00,40.00,0,-999,0,0.00
2013-1-24,19.1,5.0,-4.7,0.0,-16.6,-80.1,66,15,1,0.00,40.00,0,-999,0,0.00
2013-1-25,25.9,10.3,-1.0,6.3,-0.2,-6.3,71,25,33,0.00,40.00,0,-999,0,0.00
2013-1-26,24.5,12.6,4.7,8.1,-3.2,-62.7,73,37,2,0.00,40.00,0,-999,0,0.00
2013-1-27,29.9,16.4,6.5,6.6,0.6,-38.7,66,35,9,0.00,40.00,0,-999,0,0.00
2013-1-28,31.9,23.7,-1.0,25.0,13.6,-0.9,87,66,42,0.00,40.00,0,-999,0,0.00
2013-1-29,40.5,31.2,-1.0,32.5,26.8,0.0,91,82,70,0.00,40.00,0,-999,0,0.00
2013-1-30,55.1,47.2,-1.0,54.0,45.6,0.0,96,93,91,0.00,40.00,0,-999,0,0.00
2013-1-31,57.6,42.8,-1.0,56.3,35.5,0.0,96,76,51,0.00,40.00,0,-999,0,0.00
2013-2-1,30.8,20.1,-1.0,18.7,9.0,0.0,73,52,44,0.00,40.00,0,-999,0,0.00
2013-2-2,31.0,16.2,-1.0,13.1,6.0,0.0,75,46,44,0.00,40.00,0,-999,0,0.00
2013-2-3,34.6,15.9,-1.0,20.3,9.5,0.0,81,57,49,0.00,40.00,0,-999,0,0.00
2013-2-4,30.6,17.4,-1.0,13.8,8.1,0.0,81,63,45,0.00,40.00,0,-999,0,0.00
2013-2-5,31.0,19.3,-1.0,18.3,11.9,0.0,82,61,58,0.00,40.00,0,-999,0,0.00
2013-2-6,40.1,26.2,-1.0,25.9,16.0,0.0,85,64,48,0.00,40.00,0,-999,0,0.00
2013-2-7,32.2,20.6,-1.0,11.8,6.3,0.0,72,53,38,0.00,40.00,0,-999,0,0.00
2013-2-8,30.1,15.0,-1.0,25.7,11.4,0.0,88,52,52,0.00,40.00,0,-999,0,0.00
2013-2-9,26.3,12.5,-1.0,18.1,7.0,-1.5,88,53,52,0.00,40.00,0,-999,0,0.00
2013-2-10,41.8,18.1,-1.0,11.8,2.7,-73.7,63,34,1,0.00,40.00,0,-999,0,0.00
2013-2-11,42.8,32.3,-1.0,39.9,27.7,0.0,93,77,54,0.00,40.00,0,-999,0,0.00
2013-2-12,44.1,34.0,-1.0,34.7,26.3,0.0,93,69,54,0.00,40.00,0,-999,0,0.00
2013-2-13,44.3,32.2,-1.0,28.2,21.8,0.0,76,64,47,0.00,40.00,0,-999,0,0.00
2013-2-14,45.4,30.9,-1.0,24.8,20.7,0.0,85,66,40,0.00,40.00,0,-999,0,0.00
2013-2-15,51.5,34.8,-1.0,35.6,27.3,0.0,89,73,51,0.00,40.00,0,-999,0,0.00
2013-2-16,39.1,31.0,-1.0,29.8,24.1,0.0,89,74,63,0.00,40.00,0,-999,0,0.00
2013-2-17,25.9,17.5,-1.0,17.8,4.8,-2.4,80,53,39,0.00,40.00,0,-999,0,0.00
2013-2-18,29.3,15.4,-1.0,3.4,-1.5,-40.7,59,30,8,0.00,40.00,0,-999,0,0.00
2013-2-19,47.3,32.8,13.5,37.6,23.7,1.9,90,70,54,0.00,40.00,0,-999,0,0.00
2013-2-20,35.3,25.2,-1.0,32.9,15.4,0.0,91,60,46,0.00,40.00,0,-999,0,0.00
2013-2-21,29.5,22.0,-1.0,13.5,10.8,0.0,73,59,46,0.00,40.00,0,-999,0,0.00
2013-2-22,44.8,28.8,-1.0,25.3,17.9,0.0,82,64,41,0.00,40.00,0,-999,0,0.00
2013-2-23,35.3,30.9,28.4,30.7,26.0,20.7,90,82,72,0.00,40.00,0,-999,0,0.00
2013-2-24,38.3,33.1,30.1,34.0,29.9,27.3,92,88,82,0.00,40.00,0,-999,0,0.00
2013-2-25,40.9,31.4,-1.0,34.0,26.7,0.0,91,81,68,0.00,40.00,0,-999,0,0.00
2013-2-26,45.2,32.3,-1.0,33.3,25.8,0.0,89,71,57,0.00,40.00,0,-999,0,0.00
2013-2-27,41.0,33.3,-1.0,38.5,31.1,0.0,93,86,81,0.00,40.00,0,-999,0,0.00
2013-2-28,50.9,34.9,-1.0,42.3,31.1,0.0,92,84,69,0.00,40.00,0,-999,0,0.00
2013-3-1,45.2,32.8,-1.0,32.5,25.9,0.0,91,70,53,0.00,40.00,0,-999,0,0.00
2013-3-2,38.9,30.1,-1.0,28.2,22.7,0.0,79,68,63,0.00,40.00,0,-999,0,0.00
2013-3-3,35.6,27.6,-1.0,26.4,21.1,0.0,84,72,66,0.00,40.00,0,-999,0,0.00
2013-3-4,41.0,26.6,-1.0,26.6,18.3,0.0,80,67,54,0.00,40.00,0,-999,0,0.00
2013-3-5,47.2,29.5,-1.0,30.0,21.3,0.0,84,66,51,0.00,40.00,0,-999,0,0.00
2013-3-6,41.2,30.0,-1.0,33.4,26.2,0.0,89,77,72,0.00,40.00,0,-999,0,0.00
2013-3-7,37.4,29.5,-1.0,28.8,24.8,0.0,89,79,69,0.00,40.00,0,-999,0,0.00
2013-3-8,38.9,30.4,-1.0,31.1,25.7,0.0,89,82,70,0.00,40.00,0,-999,0,0.00
2013-3-9,55.8,35.5,22.0,26.6,21.8,17.4,83,62,29,0.00,40.00,0,-999,0,0.00
2013-3-10,55.8,36.1,22.0,32.0,26.1,18.1,89,70,39,0.00,40.00,0,-999,0,0.00
2013-3-11,56.2,40.0,30.6,40.5,33.6,25.7,91,79,54,0.00,40.00,0,-999,0,0.00
2013-3-12,52.2,45.7,39.2,48.4,43.5,36.9,94,92,87,0.00,40.00,0,-999,0,0.00
2013-3-13,48.2,36.7,-1.0,36.5,27.3,0.0,91,70,44,0.00,40.00,0,-999,0,0.00
2013-3-14,36.2,27.0,20.7,24.1,14.6,6.8,75,60,42,0.00,40.00,0,-999,0,0.00
2013-3-15,42.1,28.3,17.8,24.6,15.9,8.1,81,61,38,0.00,40.00,0,-999,0,0.00
2013-3-16,41.6,30.5,22.7,23.0,15.6,9.7,79,55,36,0.00,40.00,0,-999,0,0.00
2013-3-17,38.5,27.2,20.0,14.0,9.9,4.8,63,49,30,0.00,40.00,0,-999,0,0.00
2013-3-18,41.9,26.2,12.4,20.3,7.6,0.1,79,47,26,0.00,40.00,0,-999,0,0.00
2013-3-19,42.3,30.5,25.4,38.1,26.2,20.3,88,84,72,0.00,40.00,0,-999,0,0.00
2013-3-20,44.8,29.6,19.3,27.1,19.1,13.8,88,67,43,0.00,40.00,0,-999,0,0.00
2013-3-21,43.7,28.7,19.1,23.2,17.1,12.7,80,63,35,0.00,40.00,0,-999,0,0.00
2013-3-22,44.1,28.6,14.4,23.9,15.5,7.7,74,59,37,0.00,40.00,0,-999,0,0.00
2013-3-23,44.5,32.3,24.7,25.0,19.0,15.6,78,59,38,0.00,40.00,0,-999,0,0.00
2013-3-24,47.9,33.6,23.4,25.5,20.5,16.3,76,60,38,0.00,40.00,0,-999,0,0.00
2013-3-25,48.8,33.8,26.1,33.3,24.5,20.1,80,69,50,0.00,40.00,0,-999,0,0.00
2013-3-26,45.4,34.4,25.4,33.6,24.6,18.3,80,68,48,0.00,40.00,0,-999,0,0.00
2013-3-27,56.7,36.0,22.7,31.6,23.7,16.5,80,62,38,0.00,40.00,0,-999,0,0.00
2013-3-28,53.3,38.3,28.6,36.7,29.2,22.8,85,71,46,0.00,40.00,0,-999,0,0.00
2013-3-29,58.1,40.8,27.7,36.1,28.8,24.1,87,65,39,0.00,40.00,0,-999,0,0.00
2013-3-30,57.4,41.3,28.3,30.6,23.1,17.2,80,52,24,0.00,40.00,0,-999,0,0.00
2013-3-31,60.1,41.6,26.1,37.0,26.7,17.8,86,58,31,0.00,40.00,0,-999,0,0.00
2013-4-1,61.4,42.5,28.3,46.0,34.4,15.8,90,74,52,0.00,40.00,0,-999,0,0.00
2013-4-2,43.7,29.8,23.2,21.6,13.2,8.6,66,51,31,0.00,40.00,0,-999,0,0.00
2013-4-3,44.5,31.7,24.3,17.4,12.8,9.1,61,46,29,0.00,40.00,0,-999,0,0.00
2013-4-4,56.0,36.7,20.3,23.7,17.5,10.8,70,48,25,0.00,40.00,0,-999,0,0.00
2013-4-5,59.6,42.0,31.7,31.8,24.0,16.5,74,52,24,0.00,40.00,0,-999,0,0.00
2013-4-6,48.6,34.4,25.9,22.3,11.4,4.5,66,41,20,0.00,40.00,0,-999,0,0.00
2013-4-7,58.0,40.5,25.6,36.7,25.9,9.1,83,57,37,0.00,40.00,0,-999,0,0.00
2013-4-8,65.7,50.1,37.1,42.1,36.9,33.8,90,64,34,0.00,40.00,0,-999,0,0.00
2013-4-9,71.1,56.0,45.4,52.7,41.8,35.4,87,62,38,0.00,40.00,0,-999,0,0.00
2013-4-10,67.9,53.9,45.0,51.6,45.1,39.4,88,73,53,0.00,40.00,0,-999,0,0.00
2013-4-11,60.8,48.9,38.2,44.6,38.8,27.0,90,70,50,0.00,40.00,0,-999,0,0.00
2013-4-12,37.8,35.4,33.8,33.1,31.1,28.2,90,84,68,0.00,40.00,0,-999,0,0.00
2013-4-13,56.0,41.8,32.4,38.8,33.5,29.5,90,74,49,0.00,40.00,0,-999,0,0.00
2013-4-14,56.0,40.2,28.3,37.8,28.5,19.0,87,65,40,0.00,40.00,0,-999,0,0.00
2013-4-15,63.0,44.4,27.9,37.4,29.7,20.3,82,58,36,0.00,40.00,0,-999,0,0.00
2013-4-16,68.2,50.2,36.4,47.8,40.1,27.1,84,69,45,0.00,40.00,0,-999,0,0.00
2013-4-17,68.2,53.6,41.2,49.3,37.4,29.1,88,58,29,0.00,40.00,0,-999,0,0.00
2013-4-18,64.1,49.2,33.5,42.4,33.8,25.5,80,58,36,0.00,40.00,0,-999,0,0.00
2013-4-19,75.2,59.4,48.4,63.9,55.2,42.4,93,86,66,0.00,40.00,0,-999,0,0.00
2013-4-20,62.3,50.1,36.4,59.0,38.7,21.6,93,67,41,0.00,40.00,0,-999,0,0.00
2013-4-21,58.9,39.4,26.6,27.5,20.1,16.3,66,48,26,0.00,40.00,0,-999,0,0.00
2013-4-22,59.6,41.8,27.5,31.1,26.2,21.9,83,57,31,0.00,40.00,0,-999,0,0.00
2013-4-23,41.2,37.1,32.6,37.0,32.2,25.7,90,82,72,0.00,40.00,0,-999,0,0.00
2013-4-24,76.9,53.2,38.2,48.4,41.4,35.6,90,69,33,0.00,40.00,0,-999,0,0.00
2013-4-25,64.3,50.3,35.6,47.7,33.8,21.4,89,57,28,0.00,40.00,0,-999,0,0.00
2013-4-26,71.8,49.9,33.7,38.7,31.2,23.9,75,52,26,0.00,40.00,0,-999,0,0.00
2013-4-27,70.0,50.2,31.1,41.7,33.5,26.8,86,57,27,0.00,40.00,0,-999,0,0.00
2013-4-28,74.5,53.1,-1.0,40.8,32.6,0.0,75,48,26,0.00,40.00,0,-999,0,0.00
2013-4-29,69.3,54.1,43.7,46.6,35.3,23.5,81,52,28,0.00,40.00,0,-999,0,0.00
2013-4-30,76.0,57.1,41.0,36.1,29.4,22.6,64,38,19,0.00,40.00,0,-999,0,0.00
2013-5-1,76.3,54.6,-1.0,50.4,33.0,0.0,75,47,24,0.00,40.00,0,-999,0,0.00
2013-5-2,83.9,58.7,40.3,46.8,37.7,28.6,80,51,23,0.00,40.00,0,-999,0,0.00
2013-5-3,68.2,52.3,36.5,48.4,36.8,29.5,80,58,36,0.00,40.00,0,-999,0,0.00
2013-5-4,72.7,52.6,36.5,44.6,34.4,21.0,87,54,27,0.00,40.00,0,-999,0,0.00
2013-5-5,72.0,49.5,29.3,41.2,33.1,23.0,85,57,29,0.00,40.00,0,-999,0,0.00
2013-5-6,76.9,57.2,41.0,50.2,41.7,34.7,83,60,30,0.00,40.00,0,-999,0,0.00
2013-5-7,82.8,61.5,41.9,57.6,47.6,37.4,85,63,34,0.00,40.00,0,-999,0,0.00
2013-5-8,71.6,61.0,-1.0,61.0,55.6,0.0,91,82,66,0.00,40.00,0,-999,0,0.00
2013-5-9,71.1,57.9,48.8,62.4,53.7,46.2,92,86,67,0.00,40.00,0,-999,0,0.00
2013-5-10,85.1,65.3,50.2,59.5,53.1,47.1,91,68,38,0.00,40.00,0,-999,0,0.00
2013-5-11,65.5,60.2,56.7,60.6,55.9,51.3,91,86,72,0.00,40.00,0,-999,0,0.00
2013-5-12,73.8,58.3,44.6,56.8,47.6,26.6,92,70,46,0.00,40.00,0,-999,0,0.00
2013-5-13,63.5,46.1,34.2,37.0,29.1,24.6,77,53,33,0.00,40.00,0,-999,0,0.00
2013-5-14,62.5,44.7,-1.0,35.1,27.9,0.0,75,53,33,0.00,40.00,0,-999,0,0.00
2013-5-15,66.6,48.2,32.6,49.1,37.5,24.1,89,69,39,0.00,40.00,0,-999,0,0.00
2013-5-16,83.2,63.7,45.2,52.0,42.4,35.1,90,52,23,0.00,40.00,0,-999,0,0.00
2013-5-17,71.5,56.6,43.6,43.0,37.9,34.5,75,51,32,0.00,40.00,0,-999,0,0.00
2013-5-18,76.5,57.6,41.2,50.0,41.9,35.1,83,59,31,0.00,40.00,0,-999,0,0.00
2013-5-19,69.3,54.7,43.0,54.9,47.5,38.1,90,77,57,0.00,40.00,0,-999,0,0.00
2013-5-20,84.4,66.5,53.8,67.5,58.7,50.7,91,78,53,0.00,40.00,0,-999,0,0.00
2013-5-21,91.3,68.7,51.5,72.3,60.8,47.8,92,78,48,0.00,40.00,0,-999,0,0.00
2013-5-22,83.5,64.6,49.9,70.5,58.5,46.2,90,82,62,0.00,40.00,0,-999,0,0.00
2013-5-23,72.5,65.4,62.5,68.4,62.4,59.9,93,90,85,0.00,40.00,0,-999,0,0.00
2013-5-24,70.9,59.4,43.9,67.5,48.1,0.0,99,75,74,0.00,40.00,0,-999,0,0.00
2013-5-25,44.1,43.6,43.6,0.0,0.0,0.0,0,0,100,0.00,40.00,0,-999,0,0.00
2013-5-26,43.6,43.6,43.6,0.0,0.0,0.0,0,0,100,0.00,40.00,0,-999,0,0.00
2013-5-27,43.6,43.6,43.6,0.0,0.0,0.0,0,0,100,0.00,40.00,0,-999,0,0.00
2013-5-28,43.6,43.6,43.6,0.0,0.0,0.0,0,0,100,0.00,40.00,0,-999,0,0.00
2013-5-29,43.6,43.6,43.6,0.0,0.0,0.0,0,0,100,0.00,40.00,0,-999,0,0.00
2013-5-30,43.6,43.6,43.6,0.0,0.0,0.0,0,0,100,0.00,40.00,0,-999,0,0.00
2013-5-31,43.6,43.6,43.6,0.0,0.0,0.0,0,0,100,0.00,40.00,0,-999,0,0.00
2013-6-1,43.6,43.6,43.6,0.0,0.0,0.0,0,0,100,0.00,40.00,0,-999,0,0.00
2013-6-2,43.6,43.6,43.6,0.0,0.0,0.0,0,0,100,0.00,40.00,0,-999,0,0.00
2013-6-3,43.6,43.6,43.6,0.0,0.0,0.0,0,0,100,0.00,40.00,0,-999,0,0.00
2013-6-4,43.6,42.0,-1.0,0.0,0.0,0.0,0,0,100,0.00,40.00,0,-999,0,0.00
2013-6-5,43.6,43.6,43.6,0.0,0.0,0.0,0,0,100,0.00,40.00,0,-999,0,0.00
2013-6-6,43.6,43.6,43.6,0.0,0.0,0.0,0,0,100,0.00,40.00,0,-999,0,0.00
2013-6-7,43.6,43.6,43.6,0.0,0.0,0.0,0,0,100,0.00,40.00,0,-999,0,0.00
2013-6-8,43.6,43.6,43.6,0.0,0.0,0.0,0,0,100,0.00,40.00,0,-999,0,0.00
2013-6-9,43.6,43.6,43.6,0.0,0.0,0.0,0,0,100,0.00,40.00,0,-999,0,0.00
2013-6-10,43.6,43.6,43.6,0.0,0.0,0.0,0,0,100,0.00,40.00,0,-999,0,0.00
2013-6-11,43.6,43.6,43.6,0.0,0.0,0.0,0,0,100,0.00,40.00,0,-999,0,0.00
2013-6-12,43.6,43.6,43.6,0.0,0.0,0.0,0,0,100,0.00,40.00,0,-999,0,0.00
2013-6-13,43.6,43.6,43.6,0.0,0.0,0.0,0,0,100,0.00,40.00,0,-999,0,0.00
2013-6-14,43.6,43.6,43.6,0.0,0.0,0.0,0,0,100,0.00,40.00,0,-999,0,0.00
2013-6-15,43.6,43.6,43.6,0.0,0.0,0.0,0,0,100,0.00,40.00,0,-999,0,0.00
2013-6-16,43.6,43.6,43.6,0.0,0.0,0.0,0,0,100,0.00,40.00,0,-999,0,0.00
2013-6-17,43.6,43.6,43.6,0.0,0.0,0.0,0,0,100,0.00,40.00,0,-999,0,0.00
2013-6-18,43.6,43.6,43.6,0.0,0.0,0.0,0,0,100,0.00,40.00,0,-999,0,0.00
2013-6-19,43.6,43.6,43.6,0.0,0.0,0.0,0,0,100,0.00,40.00,0,-999,0,0.00
2013-6-20,43.6,43.6,43.6,0.0,0.0,0.0,0,0,100,0.00,40.00,0,-999,0,0.00
2013-6-21,43.6,43.3,-1.0,0.0,0.0,0.0,0,0,100,0.00,40.00,0,-999,0,0.00
2013-6-22,43.6,43.6,43.6,0.0,0.0,0.0,0,0,100,0.00,40.00,0,-999,0,0.00
2013-6-23,43.6,43.0,-1.0,0.0,0.0,0.0,0,0,100,0.00,40.00,0,-999,0,0.00
2013-6-24,43.6,9.2,-1.0,0.0,0.0,0.0,0,0,100,0.00,40.00,0,-999,0,0.00
2013-6-25,-1.0,-1.0,-1.0,0.0,0.0,0.0,0,0,100,0.00,40.00,0,-999,0,0.00
2013-6-26,-1.0,-1.0,-1.0,0.0,0.0,0.0,0,0,100,0.00,40.00,0,-999,0,0.00
2013-6-27,-1.0,-1.0,-1.0,0.0,0.0,0.0,0,0,100,0.00,40.00,0,-999,0,0.00
2013-6-28,-1.0,-1.0,-1.0,0.0,0.0,0.0,0,0,100,0.00,40.00,0,-999,0,0.00
2013-6-29,-1.0,-1.0,-1.0,0.0,0.0,0.0,0,0,100,0.00,40.00,0,-999,0,0.00
2013-6-30,-1.0,-1.0,-1.0,0.0,0.0,0.0,0,0,100,0.00,40.00,0,-999,0,0.00
2013-7-1,-1.0,-1.0,-1.0,0.0,0.0,0.0,0,0,100,0.00,40.00,0,-999,0,0.00
2013-7-2,-1.0,-1.0,-1.0,0.0,0.0,0.0,0,0,100,0.00,40.00,0,-999,0,0.00
2013-7-3,-1.0,-1.0,-1.0,0.0,0.0,0.0,0,0,100,0.00,40.00,0,-999,0,0.00
2013-7-4,-1.0,-1.0,-1.0,0.0,0.0,0.0,0,0,100,0.00,40.00,0,-999,0,0.00
2013-7-5,-1.0,-1.0,-1.0,0.0,0.0,0.0,0,0,100,0.00,40.00,0,-999,0,0.00
2013-7-6,-1.0,-1.0,-1.0,0.0,0.0,0.0,0,0,100,0.00,40.00,0,-999,0,0.00
2013-7-7,-1.0,-1.0,-1.0,0.0,0.0,0.0,0,0,100,0.00,40.00,0,-999,0,0.00
2013-7-8,-1.0,-1.0,-1.0,0.0,0.0,0.0,0,0,100,0.00,40.00,0,-999,0,0.00
2013-7-9,-1.0,-1.0,-1.0,0.0,0.0,0.0,0,0,100,0.00,40.00,0,-999,0,0.00
2013-7-10,-1.0,-1.0,-1.0,0.0,0.0,0.0,0,0,100,0.00,40.00,0,-999,0,0.00
2013-7-11,-1.0,-1.0,-1.0,0.0,0.0,0.0,0,0,100,0.00,40.00,0,-999,0,0.00
2013-7-12,-1.0,-1.0,-1.0,0.0,0.0,0.0,0,0,100,0.00,40.00,0,-999,0,0.00
2013-7-13,-1.0,-1.0,-1.0,0.0,0.0,0.0,0,0,100,0.00,40.00,0,-999,0,0.00
2013-7-14,-1.0,-1.0,-1.0,0.0,0.0,0.0,0,0,100,0.00,40.00,0,-999,0,0.00
2013-7-15,-1.0,-1.0,-1.0,0.0,0.0,0.0,0,0,100,0.00,40.00,0,-999,0,0.00
2013-7-16,-1.0,-1.0,-1.0,0.0,0.0,0.0,0,0,100,0.00,40.00,0,-999,0,0.00
2013-7-17,-1.0,-1.0,-1.0,0.0,0.0,0.0,0,0,100,0.00,40.00,0,-999,0,0.00
2013-7-18,-1.0,-1.0,-1.0,0.0,0.0,0.0,0,0,100,0.00,40.00,0,-999,0,0.00
2013-7-19,-1.0,-1.0,-1.0,0.0,0.0,0.0,0,0,100,0.00,40.00,0,-999,0,0.00
2013-7-20,-1.0,-1.0,-1.0,0.0,0.0,0.0,0,0,100,0.00,40.00,0,-999,0,0.00
2013-7-21,-1.0,-1.0,-1.0,0.0,0.0,0.0,0,0,100,0.00,40.00,0,-999,0,0.00
2013-7-22,-1.0,-1.0,-1.0,0.0,0.0,0.0,0,0,100,0.00,40.00,0,-999,0,0.00
2013-7-23,-1.0,-1.0,-1.0,0.0,0.0,0.0,0,0,100,0.00,40.00,0,-999,0,0.00
2013-7-24,-1.0,-1.0,-1.0,0.0,0.0,0.0,0,0,100,0.00,40.00,0,-999,0,0.00
2013-7-25,-1.0,-1.0,-1.0,0.0,0.0,0.0,0,0,100,0.00,40.00,0,-999,0,0.00
2013-7-26,-1.0,-1.0,-1.0,0.0,0.0,0.0,0,0,100,0.00,40.00,0,-999,0,0.00
2013-7-27,-1.0,-1.0,-1.0,0.0,0.0,0.0,0,0,100,0.00,40.00,0,-999,0,0.00
2013-7-28,-1.0,-1.0,-1.0,0.0,0.0,0.0,0,0,100,0.00,40.00,0,-999,0,0.00
2013-7-29,-1.0,-1.0,-1.0,0.0,0.0,0.0,0,0,100,0.00,40.00,0,-999,0,0.00
2013-7-30,-1.0,-1.0,-1.0,0.0,0.0,0.0,0,0,100,0.00,40.00,0,-999,0,0.00
2013-7-31,-1.0,-1.0,-1.0,0.0,0.0,0.0,0,0,100,0.00,40.00,0,-999,0,0.00
2013-8-1,-1.0,-1.0,-1.0,0.0,0.0,0.0,0,0,100,0.00,40.00,0,-999,0,0.00
2013-8-2,-1.0,-1.0,-1.0,0.0,0.0,0.0,0,0,100,0.00,40.00,0,-999,0,0.00
2013-8-3,-1.0,-1.0,-1.0,0.0,0.0,0.0,0,0,100,0.00,40.00,0,-999,0,0.00
2013-8-4,-1.0,-1.0,-1.0,0.0,0.0,0.0,0,0,100,0.00,40.00,0,-999,0,0.00
2013-8-5,-1.0,-1.0,-1.0,0.0,0.0,0.0,0,0,100,0.00,40.00,0,-999,0,0.00
2013-8-6,-1.0,-1.0,-1.0,0.0,0.0,0.0,0,0,100,0.00,40.00,0,-999,0,0.00
2013-8-7,-1.0,-1.0,-1.0,0.0,0.0,0.0,0,0,100,0.00,40.00,0,-999,0,0.00
2013-8-8,-1.0,-1.0,-1.0,0.0,0.0,0.0,0,0,100,0.00,40.00,0,-999,0,0.00
2013-8-9,-1.0,-1.0,-1.0,0.0,0.0,0.0,0,0,100,0.00,40.00,0,-999,0,0.00
2013-8-10,-1.0,-1.0,-1.0,0.0,0.0,0.0,0,0,100,0.00,40.00,0,-999,0,0.00
2013-8-11,-1.0,-1.0,-1.0,0.0,0.0,0.0,0,0,100,0.00,40.00,0,-999,0,0.00
2013-8-12,-1.0,-1.0,-1.0,0.0,0.0,0.0,0,0,100,0.00,40.00,0,-999,0,0.00
2013-8-13,-1.0,-1.0,-1.0,0.0,0.0,0.0,0,0,100,0.00,40.00,0,-999,0,0.00
2013-8-14,-1.0,-1.0,-1.0,0.0,0.0,0.0,0,0,100,0.00,40.00,0,-999,0,0.00
2013-8-15,-1.0,-1.0,-1.0,0.0,0.0,0.0,0,0,100,0.00,40.00,0,-999,0,0.00
2013-8-16,-1.0,-1.0,-1.0,0.0,0.0,0.0,0,0,100,0.00,40.00,0,-999,0,0.00
2013-8-17,-1.0,-1.0,-1.0,0.0,0.0,0.0,0,0,100,0.00,40.00,0,-999,0,0.00
2013-8-18,-1.0,-1.0,-1.0,0.0,0.0,0.0,0,0,100,0.00,40.00,0,-999,0,0.00
2013-8-19,-1.0,-1.0,-1.0,0.0,0.0,0.0,0,0,100,0.00,40.00,0,-999,0,0.00
2013-8-20,-1.0,-1.0,-1.0,0.0,0.0,0.0,0,0,100,0.00,40.00,0,-999,0,0.00
2013-8-21,-1.0,-1.0,-1.0,0.0,0.0,0.0,0,0,100,0.00,40.00,0,-999,0,0.00
2013-8-22,-1.0,-1.0,-1.0,0.0,0.0,0.0,0,0,100,0.00,40.00,0,-999,0,0.00
2013-8-23,-1.0,-1.0,-1.0,0.0,0.0,0.0,0,0,100,0.00,40.00,0,-999,0,0.00
2013-8-24,-1.0,-1.0,-1.0,0.0,0.0,0.0,0,0,100,0.00,40.00,0,-999,0,0.00
2013-8-25,-1.0,-1.0,-1.0,0.0,0.0,0.0,0,0,100,0.00,40.00,0,-999,0,0.00
2013-8-26,60.6,-1.0,-1.0,0.0,0.0,0.0,0,0,100,0.00,40.00,0,-999,0,0.00
2013-8-27,-1.0,-1.0,-1.0,0.0,0.0,0.0,0,0,100,0.00,40.00,0,-999,0,0.00
2013-8-28,-1.0,-1.0,-1.0,0.0,0.0,0.0,0,0,100,0.00,40.00,0,-999,0,0.00
2013-8-29,-1.0,-1.0,-2.0,0.0,-0.4,-58.2,4,0,4,0.00,40.00,0,-999,0,0.00
2013-8-30,-1.0,-1.0,-1.0,0.0,0.0,0.0,0,0,100,0.00,40.00,0,-999,0,0.00
2013-8-31,-1.0,-1.0,-1.0,0.0,0.0,0.0,0,0,100,0.00,40.00,0,-999,0,0.00
2013-9-1,-1.0,-1.0,-2.0,0.0,-0.4,-58.2,4,0,4,0.00,40.00,0,-999,0,0.00
2013-9-2,0.0,-1.0,-1.0,99.9,0.7,0.0,84,1,84,29.72,29.72,0,-992,0,0.08
2013-9-3,-1.0,-1.0,-1.0,0.0,0.0,0.0,0,0,100,0.00,40.00,0,-999,0,0.00
2013-9-4,-1.0,-1.0,-1.0,0.0,0.0,0.0,0,0,100,0.00,40.00,0,-999,0,0.00
2013-9-5,-1.0,-1.0,-1.0,0.0,0.0,0.0,0,0,100,0.00,40.00,0,-999,0,0.00
2013-9-6,-1.0,-1.0,-1.0,0.0,0.0,0.0,0,0,100,0.00,40.00,0,-999,0,0.00
2013-9-7,-1.0,-1.0,-1.0,0.0,0.0,0.0,0,0,100,0.00,40.00,0,-999,0,0.00
2013-9-8,-1.0,-1.0,-1.0,0.0,0.0,0.0,0,0,100,0.00,40.00,0,-999,0,0.00
2013-9-9,-1.0,-1.0,-1.0,0.0,0.0,0.0,0,0,100,0.00,40.00,0,-999,0,0.00
2013-9-10,-1.0,-1.0,-1.0,0.0,0.0,0.0,0,0,100,0.00,40.00,0,-999,0,0.00
2013-9-11,-1.0,-1.0,-1.0,0.0,0.0,0.0,0,0,100,0.00,40.00,0,-999,0,0.00
2013-9-12,-1.0,-1.0,-1.0,0.0,0.0,0.0,0,0,100,0.00,40.00,0,-999,0,0.00
2013-9-13,-1.0,-1.0,-1.0,0.0,0.0,0.0,0,0,100,0.00,40.00,0,-999,0,0.00
2013-9-14,-1.0,-1.0,-1.0,0.0,0.0,0.0,0,0,100,0.00,40.00,0,-999,0,0.00
2013-9-15,-1.0,-1.0,-1.0,0.0,0.0,0.0,0,0,100,0.00,40.00,0,-999,0,0.00
2013-9-16,-1.0,-1.0,-1.0,0.0,0.0,0.0,0,0,100,0.00,40.00,0,-999,0,0.00
2013-9-17,-1.0,-1.0,-1.0,0.0,0.0,0.0,0,0,100,0.00,40.00,0,-999,0,0.00
2013-9-18,-1.0,-1.0,-1.0,0.0,0.0,0.0,0,0,100,0.00,40.00,0,-999,0,0.00
2013-9-19,-1.0,-1.0,-1.0,0.0,0.0,0.0,0,0,100,0.00,40.00,0,-999,0,0.00
2013-9-20,-1.0,-1.0,-1.0,0.0,0.0,0.0,0,0,100,0.00,40.00,0,-999,0,0.00
2013-9-21,72.2,31.8,-1.0,64.0,29.6,0.0,90,39,74,0.00,40.00,0,-999,0,0.00
2013-9-22,69.7,59.2,44.6,63.3,52.1,39.7,92,78,54,0.00,40.00,0,-999,0,0.00
2013-9-23,62.5,48.2,37.1,45.7,40.2,33.6,89,75,52,0.00,40.00,0,-999,0,0.00
2013-9-24,66.1,45.2,-1.0,46.9,36.9,0.0,89,67,46,0.00,40.00,0,-999,0,0.00
2013-9-25,69.1,53.7,40.1,53.2,45.8,36.9,90,76,51,0.00,40.00,0,-999,0,0.00
2013-9-26,69.8,54.3,46.1,52.3,47.1,42.8,89,78,52,0.00,40.00,0,-999,0,0.00
2013-9-27,64.3,54.4,46.3,52.9,48.6,43.5,91,82,64,0.00,40.00,0,-999,0,0.00
2013-9-28,75.8,55.7,44.5,59.5,49.1,42.1,93,80,51,0.00,40.00,0,-999,0,0.00
2013-9-29,70.0,53.8,45.0,54.3,45.4,41.4,93,76,42,0.00,40.00,0,-999,0,0.00
2013-9-30,71.8,53.5,41.4,53.1,45.3,38.5,92,76,46,0.00,40.00,0,-999,0,0.00
2013-10-1,76.0,57.8,45.0,57.7,50.3,42.3,93,78,48,0.00,40.00,0,-999,0,0.00
2013-10-2,77.9,61.5,-1.0,62.2,54.1,0.0,92,78,55,0.00,40.00,0,-999,0,0.00
2013-10-3,76.3,58.4,46.1,56.3,47.9,43.0,90,71,38,0.00,40.00,0,-999,0,0.00
2013-10-4,63.0,55.9,49.0,58.5,51.9,44.2,93,86,78,0.00,40.00,0,-999,0,0.00
2013-10-5,71.5,61.7,56.9,64.2,58.0,54.3,93,88,75,0.00,40.00,0,-999,0,0.00
2013-10-6,61.0,56.4,54.4,58.3,54.2,52.3,94,92,90,0.00,40.00,0,-999,0,0.00
2013-10-7,74.2,63.3,54.0,70.2,60.9,50.9,96,92,83,0.00,40.00,0,-999,0,0.00
2013-10-8,65.0,52.1,41.6,50.2,43.9,37.6,91,76,46,0.00,40.00,0,-999,0,0.00
2013-10-9,65.3,49.4,41.0,47.7,41.0,36.7,88,74,52,0.00,40.00,0,-999,0,0.00
2013-10-10,61.9,51.0,42.1,53.8,46.6,39.4,92,85,72,0.00,40.00,0,-999,0,0.00
2013-10-11,71.1,56.5,47.0,57.4,49.5,42.6,92,78,60,0.00,40.00,0,-999,0,0.00
2013-10-12,62.8,55.6,47.9,55.6,50.8,42.4,90,84,75,0.00,40.00,0,-999,0,0.00
2013-10-13,61.2,50.4,40.5,50.9,45.1,37.8,91,82,65,0.00,40.00,0,-999,0,0.00
2013-10-14,68.4,48.5,33.8,49.1,39.7,31.5,92,74,42,0.00,40.00,0,-999,0,0.00
2013-10-15,70.4,57.0,-1.0,53.1,48.3,0.0,88,73,49,0.00,40.00,0,-999,0,0.00
2013-10-16,61.9,53.4,45.4,52.5,48.0,42.6,92,83,68,0.00,40.00,0,-999,0,0.00
2013-10-17,72.4,59.7,49.3,62.2,55.2,46.6,93,86,64,0.00,40.00,0,-999,0,0.00
2013-10-18,70.0,56.7,43.2,58.3,48.0,36.3,93,74,50,0.00,40.00,0,-999,0,0.00
2013-10-19,66.1,51.2,37.4,46.8,40.6,33.6,87,69,45,0.00,40.00,0,-999,0,0.00
2013-10-20,60.8,49.3,36.0,48.6,38.2,29.1,90,68,40,0.00,40.00,0,-999,0,0.00
2013-10-21,65.9,48.7,34.2,44.8,36.9,29.5,85,66,42,0.00,40.00,0,-999,0,0.00
2013-10-22,66.4,51.2,39.4,52.7,44.4,34.9,89,78,55,0.00,40.00,0,-999,0,0.00
2013-10-23,50.2,40.0,30.8,39.0,31.9,26.6,86,74,53,0.00,40.00,0,-999,0,0.00
2013-10-24,51.7,38.1,29.3,35.1,27.8,22.5,86,68,42,0.00,40.00,0,-999,0,0.00
2013-10-25,50.0,34.8,25.6,34.3,25.3,21.2,86,69,48,0.00,40.00,0,-999,0,0.00
2013-10-26,55.3,39.0,25.7,35.8,28.1,21.2,88,67,42,0.00,40.00,0,-999,0,0.00
2013-10-27,53.8,42.5,30.6,36.5,30.9,23.9,84,64,44,0.00,40.00,0,-999,0,0.00
2013-10-28,58.7,39.7,26.8,38.3,29.1,22.6,88,68,44,0.00,40.00,0,-999,0,0.00
2013-10-29,49.0,35.1,27.0,27.3,21.7,-99.9,79,61,39,0.00,40.00,0,-999,0,0.00
2013-10-30,57.4,39.7,-1.0,44.4,31.8,0.0,90,73,61,0.00,40.00,0,-999,0,0.00
2013-10-31,58.7,50.2,35.8,55.9,47.5,33.1,93,90,84,0.00,40.00,0,-999,0,0.00
2013-11-1,63.7,59.3,52.2,60.1,55.5,49.1,93,87,78,0.00,40.00,0,-999,0,0.00
2013-11-2,65.9,50.7,39.6,50.2,42.3,36.9,91,75,45,0.00,40.00,0,-999,0,0.00
2013-11-3,48.1,36.9,25.9,42.1,27.7,15.1,90,70,42,0.00,40.00,0,-999,0,0.00
2013-11-4,43.6,29.3,20.2,20.1,16.2,12.9,77,60,35,0.00,40.00,0,-999,0,0.00
2013-11-5,51.7,37.5,24.5,34.2,27.8,17.4,79,69,48,0.00,40.00,0,-999,0,0.00
2013-11-6,60.8,48.5,-1.0,47.3,40.8,0.0,88,75,56,0.00,40.00,0,-999,0,0.00
2013-11-7,59.6,49.2,34.9,55.8,45.6,30.2,92,87,80,0.00,40.00,0,-999,0,0.00
2013-11-8,46.3,34.2,25.6,34.3,26.3,20.1,89,73,55,0.00,40.00,0,-999,0,0.00
2013-11-9,43.9,33.4,22.5,30.9,24.3,17.8,84,70,50,0.00,40.00,0,-999,0,0.00
2013-11-10,60.1,42.7,37.8,41.4,34.6,29.3,84,73,50,0.00,40.00,0,-999,0,0.00
2013-11-11,50.2,41.4,32.8,31.6,28.2,24.1,71,60,46,0.00,40.00,0,-999,0,0.00
2013-11-12,44.6,30.8,20.7,34.2,22.1,12.2,85,70,59,0.00,40.00,0,-999,0,0.00
2013-11-13,35.1,23.5,14.2,17.6,12.3,9.0,79,63,45,0.00,40.00,0,-999,0,0.00
2013-11-14,48.6,34.5,24.3,26.6,19.6,14.7,70,55,39,0.00,40.00,0,-999,0,0.00
2013-11-15,59.9,39.6,25.7,29.1,22.3,13.5,72,52,29,0.00,40.00,0,-999,0,0.00
2013-11-16,58.7,42.1,33.3,37.2,29.5,24.3,86,62,39,0.00,40.00,0,-999,0,0.00
2013-11-17,58.7,49.4,34.4,55.4,46.3,30.7,94,89,80,0.00,40.00,0,-999,0,0.00
2013-11-18,62.3,54.5,43.2,57.7,45.2,30.7,94,72,51,0.00,40.00,0,-999,0,0.00
2013-11-19,42.3,35.1,-1.0,30.2,21.4,0.0,66,57,44,0.00,40.00,0,-999,0,0.00
2013-11-20,40.7,27.0,-1.0,17.8,14.2,0.0,71,59,38,0.00,40.00,0,-999,0,0.00
2013-11-21,47.3,32.3,17.3,32.0,21.9,9.9,77,66,45,0.00,40.00,0,-999,0,0.00
2013-11-22,46.6,43.1,38.3,43.5,39.7,31.8,92,88,77,0.00,40.00,0,-999,0,0.00
2013-11-23,45.2,34.8,-1.0,42.8,24.5,0.0,92,66,44,0.00,40.00,0,-999,0,0.00
2013-11-24,24.1,20.2,13.7,13.8,2.0,-2.4,66,46,33,0.00,40.00,0,-999,0,0.00
2013-11-25,31.7,24.5,21.2,15.8,4.8,-2.4,62,43,33,0.00,40.00,0,-999,0,0.00
2013-11-26,39.4,31.7,25.7,31.6,20.1,11.8,89,63,50,0.00,40.00,0,-999,0,0.00
2013-11-27,59.6,45.1,-1.0,57.6,42.6,0.0,93,90,87,0.00,40.00,0,-999,0,0.00
2013-11-28,31.7,24.3,16.0,27.7,13.8,7.5,86,65,45,0.00,40.00,0,-999,0,0.00
2013-11-29,31.9,21.9,12.4,16.7,12.1,5.7,76,66,49,0.00,40.00,0,-999,0,0.00
2013-11-30,32.0,20.6,-1.0,21.0,7.5,-45.6,78,61,6,0.00,40.00,0,-999,0,0.00
2013-12-1,42.5,35.4,27.9,39.6,31.8,20.7,92,87,74,0.00,40.00,0,-999,0,0.00
2013-12-2,41.0,34.1,27.5,37.4,31.6,25.2,93,91,84,0.00,40.00,0,-999,0,0.00
2013-12-3,47.5,32.9,24.8,37.6,28.4,22.1,92,84,62,0.00,40.00,0,-999,0,0.00
2013-12-4,46.4,32.0,-1.0,33.8,26.4,0.0,89,80,57,0.00,40.00,0,-999,0,0.00
2013-12-5,52.7,46.6,35.8,51.1,44.0,30.9,94,91,80,0.00,40.00,0,-999,0,0.00
2013-12-6,53.1,44.0,32.2,51.6,41.0,29.3,95,89,80,0.00,40.00,0,-999,0,0.00
2013-12-7,34.0,27.9,-1.0,29.1,23.3,0.0,89,78,73,0.00,40.00,0,-999,0,0.00
2013-12-8,29.0,23.9,15.3,21.9,16.6,11.7,86,74,63,0.00,40.00,0,-999,0,0.00
2013-12-9,95.4,29.6,22.9,91.9,26.2,16.0,91,87,69,29.68,29.68,0,-992,0,0.05
2013-12-10,34.6,27.1,13.0,29.3,23.9,9.7,92,87,81,0.00,40.00,0,-999,0,0.00
2013-12-11,30.1,19.0,-1.0,21.9,14.3,0.0,89,81,69,0.00,40.00,0,-999,0,0.00
2013-12-12,25.2,14.1,5.8,14.2,2.7,-63.0,86,54,2,0.00,40.00,0,-999,0,0.00
2013-12-13,31.0,18.5,8.8,16.3,9.0,-48.3,75,67,5,0.00,40.00,0,-999,0,0.00
2013-12-14,18.9,13.7,10.3,14.9,5.5,0.5,86,70,57,0.00,40.00,0,-999,0,0.00
2013-12-15,31.9,24.6,18.0,28.2,20.6,14.0,89,84,75,0.00,40.00,0,-999,0,0.00
2013-12-16,30.1,19.2,10.4,18.5,10.2,2.8,87,69,48,0.00,40.00,0,-999,0,0.00
2013-12-17,17.1,10.8,0.2,12.4,4.4,-52.8,84,56,4,0.00,40.00,0,-999,0,0.00
2013-12-18,32.9,20.3,-1.0,21.0,14.4,0.0,86,77,61,0.00,40.00,0,-999,0,0.00
2013-12-19,41.8,29.0,14.2,27.3,21.2,10.8,87,73,56,0.00,40.00,0,-999,0,0.00
2013-12-20,50.6,39.1,28.6,36.5,30.3,23.4,83,71,57,0.00,40.00,0,-999,0,0.00
2013-12-21,55.3,46.2,37.8,47.1,40.2,30.9,91,80,71,0.00,40.00,0,-999,0,0.00
2013-12-22,61.6,56.5,47.7,59.0,53.8,45.1,94,91,86,0.00,40.00,0,-999,0,0.00
2013-12-23,56.5,43.1,33.5,53.2,40.3,29.1,92,90,84,0.00,40.00,0,-999,0,0.00
2013-12-24,34.6,28.0,18.0,28.8,19.5,8.2,85,70,54,0.00,40.00,0,-999,0,0.00
2013-12-25,23.6,15.6,-1.0,7.5,4.0,0.0,68,59,46,0.00,40.00,0,-999,0,0.00
2013-12-26,32.4,22.5,-1.0,27.5,16.7,0.0,88,77,63,0.00,40.00,0,-999,0,0.00
2013-12-27,34.6,22.3,12.1,22.8,16.0,8.8,87,77,59,0.00,40.00,0,-999,0,0.00
2013-12-28,43.9,30.5,-1.0,30.2,22.8,0.0,84,73,54,0.00,40.00,0,-999,0,0.00
2013-12-29,41.2,34.7,-1.0,34.5,29.7,0.0,90,81,70,0.00,40.00,0,-999,0,0.00
2013-12-30,34.6,25.5,-1.0,31.6,18.7,0.0,91,73,54,0.00,40.00,0,-999,0,0.00
2013-12-31,24.7,15.6,6.8,13.1,2.3,-62.9,78,60,2,0.00,40.00,0,-999,0,0.00
2014-1-1,28.3,19.2,-1.0,12.6,7.8,0.0,73,60,48,0.00,40.00,0,-999,0,0.00
2014-1-2,18.9,12.1,-1.0,12.9,6.7,0.0,80,57,75,0.00,40.00,0,-999,0,0.00